This is the latest recevied weather packets stored in our database for station/object NK2J. If no packets are shown the sender has not sent any weather packets the latest 10 day(s).
| Time | Temp. | Humidity | Pressure | Rain* | Wind** | Luminosity | Snow |
|---|---|---|---|---|---|---|---|
| 1778007598 | 22.22° C | 43% | 1013.5 hPa | 0 mm | - | 816 W/m² | - |
| 1778007296 | 22.78° C | 42% | 1013.6 hPa | 0 mm | - | 865 W/m² | - |
| 1778006992 | 22.22° C | 42% | 1013.5 hPa | 0 mm | - | 836 W/m² | - |
| 1778006690 | 22.22° C | 46% | 1013.5 hPa | 0 mm | - | 821 W/m² | - |
| 1778006386 | 21.67° C | 42% | 1013.8 hPa | 0 mm | - | 886 W/m² | - |
| 1778006083 | 22.22° C | 43% | 1013.7 hPa | 0 mm | - | 238 W/m² | - |
| 1778005780 | 21.67° C | 43% | 1013.7 hPa | 0 mm | - | 400 W/m² | - |
| 1778005477 | 22.22° C | 42% | 1013.7 hPa | 0 mm | - | 221 W/m² | - |
| 1778005173 | 21.67° C | 46% | 1013.7 hPa | 0 mm | - | 304 W/m² | - |
| 1778004870 | 21.11° C | 49% | 1013.5 hPa | 0 mm | - | 204 W/m² | - |
| 1778004567 | 21.67° C | 49% | 1013.7 hPa | 0 mm | - | 227 W/m² | - |
| 1778004263 | 21.67° C | 49% | 1013.8 hPa | 0 mm | - | 900 W/m² | - |
| 1778003960 | 22.22° C | 48% | 1013.7 hPa | 0 mm | - | 210 W/m² | - |
| 1778003657 | 22.22° C | 51% | 1013.5 hPa | 0 mm | - | 794 W/m² | - |
| 1778003353 | 21.67° C | 51% | 1013.7 hPa | 0 mm | - | 774 W/m² | - |
| 1778003051 | 20.56° C | 53% | 1013.7 hPa | 0 mm | - | 206 W/m² | - |
| 1778002747 | 20.56° C | 53% | 1013.9 hPa | 0 mm | - | 268 W/m² | - |
| 1778002443 | 21.11° C | 52% | 1014 hPa | 0 mm | - | 220 W/m² | - |
| 1778002139 | 20.56° C | 55% | 1014 hPa | 0 mm | - | 308 W/m² | - |
| 1778001838 | 20.56° C | 53% | 1013.9 hPa | 0 mm | - | 261 W/m² | - |
| 1778001537 | 20.56° C | 54% | 1013.9 hPa | 0 mm | - | 160 W/m² | - |
| 1778001235 | 20° C | 55% | 1013.9 hPa | 0 mm | - | 206 W/m² | - |
| 1778000931 | 20.56° C | 54% | 1013.8 hPa | 0 mm | - | 248 W/m² | - |
| 1778000628 | 20.56° C | 55% | 1013.8 hPa | 0 mm | - | 210 W/m² | - |
| 1778000323 | 20.56° C | 55% | 1013.7 hPa | 0 mm | - | 263 W/m² | - |
* Rain latest hour (hover to see other rain measurements)
** Current wind speed in m/s (hover to see current wind gust speed)